Temp
56 48 47 55 56 60 57 51 55 61 65 59 60 61 66 72 71 69 72 75 75 74 77 75 74 77 77 78 77 77 75 75 74 72 71 71 71 73 74 75 75 74 73 71
49 45 58 61 60 57 55 54 54 60 60 58 61 61 66 69 71 72 72 72 74 75 75 76 75 75 75 76 76 76 76 76 75 75 73 73 73 73 73 72 72 72 70 70
50 54 59 57 55 52 52 52 55 54 57 59 57 55 60 67 70 72 73 74 75 74 75 75 74 74 75 74 75 76 76 76 76 76 74 73 73 72 70 70 70 70 72 71
52 60 55 54 52 55 45 53 54 52 50 46 58 45 60 67 68 68 70 71 73 74 74 76 74 72 72 73 76 76 76 76 76 76 74 70 69 66 70 71 71 71 72 71
49 49 51 49 53 57 48 56 52 49 46 45 51 46 55 63 62 67 71 71 72 75 74 73 74 72 73 73 73 75 75 75 75 75 74 72 69 71 73 73 72 70 69 68
48 53 55 56 58 56 54 46 45 45 43 35 48 48 51 58 63 67 71 74 74 75 75 75 75 74 72 72 72 73 72 73 75 74 74 72 70 70 71 70 68 65 64 61
45 47 51 54 46 50 48 47 34 32 32 34 49 45 52 62 67 69 69 73 76 76 75 75 73 72 71 70 71 70 71 71 74 74 71 72 72 72 71 69 67 65 62 59
37 32 45 54 48 42 43 44 37 32 34 42 43 41 52 65 67 65 71 72 73 74 76 75 74 72 71 70 70 70 69 70 71 72 72 72 72 72 71 70 68 67 64 62
40 39 49 50 53 51 42 37 50 40 33 37 47 52 61 63 65 67 68 69 70 71 72 73 73 73 71 70 68 68 68 69 71 72 72 71 72 72 70 68 69 68 65 59
51 36 45 46 53 51 50 52 39 40 32 32 45 49 52 57 63 68 67 68 70 72 70 69 69 69 70 70 69 68 69 68 68 70 71 70 70 69 70 67 65 65 60 54
56 45 36 44 44 43 45 43 48 49 45 37 37 48 63 64 65 65 66 65 67 68 68 68 68 68 67 66 65 66 66 66 66 67 68 67 65 65 65 62 60 60 55 52
54 45 32 38 48 52 52 47 48 42 35 42 42 44 63 65 65 64 63 64 66 66 66 65 65 64 63 62 62 62 64 63 63 65 65 64 61 56 58 55 53 51 50 50
51 42 30 31 41 48 46 51 51 51 42 37 37 46 67 65 61 62 64 65 66 65 66 66 66 65 64 63 62 60 60 60 60 61 61 62 58 52 52 50 49 47 46 46
51 46 42 36 42 46 40 46 49 48 39 42 43 51 60 60 60 63 63 64 66 66 65 66 63 65 64 62 61 59 59 59 57 57 57 56 55 54 53 51 47 45 47 44
53 38 47 49 50 48 46 44 47 44 47 43 48 50 55 61 63 65 67 66 65 64 65 64 63 63 64 61 58 58 58 56 55 54 53 54 52 52 50 47 44 43 44 44
52 38 44 34 47 48 42 47 47 46 49 49 50 50 61 63 64 62 63 63 63 64 65 64 63 63 59 59 57 56 55 54 53 52 51 52 47 43 41 39 38 39 38 39
46 37 35 31 39 39 33 41 46 48 50 50 45 53 59 58 59 61 62 63 63 64 65 65 64 64 59 58 57 55 54 53 49 46 43 41 41 39 39 38 37 36 37 36
45 35 34 28 33 27 45 53 54 49 51 53 53 56 58 59 61 62 64 62 61 63 63 64 63 63 63 59 57 56 53 48 43 42 40 38 38 37 35 35 35 35 35 36
52 44 31 30 32 42 43 47 49 46 47 56 53 56 59 60 59 59 63 64 62 60 57 56 57 58 60 58 56 51 44 42 41 40 39 38 38 36 35 34 33 34 34 34
50 53 41 31 31 29 48 51 57 55 38 57 57 56 56 58 48 55 55 53 52 53 51 49 51 54 54 54 52 43 41 40 40 40 39 38 37 35 34 35 34 35 34 34
33 35 34 33 33 36 46 49 55 36 43 46 56 58 56 53 57 52 52 50 48 46 45 46 50 51 50 48 42 40 40 39 41 38 37 35 35 34 35 35 34 34 33 32
37 34 33 33 33 30 48 47 46 53 47 47 52 52 53 54 50 48 48 45 45 43 43 43 45 45 45 40 40 39 39 40 36 35 34 34 34 34 34 34 33 33 32 31
36 43 37 40 41 47 50 50 52 52 48 49 50 49 51 48 48 48 46 44 41 39 39 37 36 37 37 35 36 36 36 35 33 33 32 33 33 33 33 33 32 31 32 32
40 46 42 42 44 46 47 46 49 50 49 48 49 48 48 46 46 44 42 40 39 35 33 33 34 33 32 33 33 33 34 33 33 32 32 32 32 32 32 33 33 33 32 32
43 43 37 38 39 44 46 47 47 45 47 45 46 46 46 45 44 42 35 34 34 33 32 32 31 31 30 32 31 31 32 32 32 32 31 32 32 32 31 32 32 32 33 34
43 44 42 42 45 49 49 46 45 42 43 41 39 37 37 39 37 35 32 32 32 30 30 30 28 28 28 29 28 27 28 30 31 31 31 32 32 31 31 31 31 35 36 36
MSLP
1014.75 1014.80 1013.46 1014.12 1014.51 1014.10 1014.56 1014.51 1013.96 1013.51 1013.38 1013.91 1013.18 1012.69 1012.27 1012.35 1012.41 1012.41 1012.34 1012.43 1012.81 1013.66 1014.52 1015.67 1016.50 1016.65 1016.92 1017.43 1017.89 1018.32 1018.91 1019.65 1020.24 1020.82 1021.31 1021.41 1021.59 1021.97 1022.09 1022.26 1022.56 1023.07 1023.62 1024.11
1014.78 1013.25 1013.55 1014.15 1014.57 1014.49 1014.55 1014.41 1014.39 1013.88 1014.43 1014.58 1013.36 1012.33 1012.20 1011.95 1011.45 1011.69 1011.83 1012.06 1012.34 1012.99 1013.66 1014.57 1015.62 1016.07 1016.36 1016.80 1017.34 1017.91 1018.31 1018.85 1019.43 1019.72 1020.29 1020.75 1021.03 1021.40 1021.71 1022.08 1022.49 1022.80 1023.11 1023.58
1012.48 1012.74 1013.69 1014.08 1014.34 1014.59 1014.81 1014.79 1014.70 1014.71 1014.95 1014.84 1014.03 1011.95 1011.51 1011.10 1011.09 1011.08 1011.38 1011.33 1011.54 1012.16 1012.62 1013.41 1014.48 1015.31 1015.89 1016.36 1016.69 1017.10 1017.52 1017.98 1018.61 1019.07 1019.44 1020.18 1020.62 1020.92 1021.27 1021.60 1022.07 1022.41 1022.58 1022.98
1013.13 1012.99 1013.44 1013.83 1013.94 1014.66 1015.24 1015.73 1015.91 1015.94 1015.99 1015.12 1014.60 1011.85 1010.12 1009.41 1009.22 1009.98 1010.18 1010.75 1010.81 1011.30 1012.04 1012.61 1013.62 1014.44 1015.04 1015.70 1016.23 1016.73 1016.96 1017.33 1017.86 1018.54 1018.79 1019.26 1019.73 1020.10 1020.54 1020.89 1021.24 1021.60 1022.03 1022.42
1012.48 1012.73 1013.47 1013.69 1013.90 1014.73 1015.89 1016.49 1016.98 1017.10 1017.06 1016.78 1015.11 1013.85 1009.86 1009.74 1008.95 1008.68 1009.09 1009.67 1010.06 1010.38 1010.89 1011.61 1012.31 1013.12 1014.07 1014.93 1015.35 1015.85 1016.30 1016.68 1017.19 1017.66 1018.02 1018.28 1018.99 1019.55 1019.76 1020.09 1020.44 1021.01 1021.50 1022.04
1013.50 1013.78 1013.81 1013.73 1014.46 1015.34 1016.73 1017.68 1018.22 1018.42 1018.30 1016.79 1014.87 1013.66 1010.14 1009.05 1008.49 1008.57 1008.44 1008.40 1009.01 1009.71 1010.10 1010.63 1011.25 1012.38 1013.24 1013.99 1014.58 1015.04 1015.55 1015.91 1016.46 1016.94 1017.38 1017.61 1017.93 1018.64 1019.04 1019.38 1020.01 1020.77 1021.47 1021.93
1013.64 1014.17 1014.46 1014.46 1015.26 1016.31 1016.62 1017.23 1018.68 1018.91 1018.51 1015.40 1014.43 1013.35 1010.00 1008.80 1008.47 1008.06 1008.32 1008.07 1008.27 1009.05 1009.80 1009.93 1010.34 1011.08 1012.13 1012.98 1013.63 1014.31 1014.67 1014.94 1015.63 1016.08 1016.51 1016.83 1017.33 1017.89 1018.15 1018.77 1019.53 1020.15 1020.84 1021.61
1012.05 1014.70 1014.38 1014.38 1014.64 1015.61 1016.81 1016.72 1016.90 1016.85 1016.81 1015.02 1014.65 1011.62 1009.19 1008.69 1008.43 1008.44 1008.10 1008.19 1008.26 1008.38 1008.74 1009.47 1010.13 1010.82 1011.32 1012.05 1012.82 1013.57 1014.15 1014.22 1014.54 1015.01 1015.56 1016.13 1016.49 1016.83 1017.37 1018.04 1018.83 1019.38 1019.82 1020.21
1010.14 1013.05 1014.45 1014.59 1014.74 1015.37 1016.46 1016.91 1016.53 1016.13 1016.94 1015.59 1012.72 1010.49 1009.29 1008.57 1008.03 1008.02 1008.00 1008.21 1008.31 1008.73 1009.24 1009.56 1010.25 1010.75 1011.49 1012.09 1012.55 1012.99 1013.43 1013.90 1014.10 1014.06 1014.49 1015.18 1015.89 1016.29 1016.33 1016.95 1017.80 1018.57 1019.38 1020.06
1008.81 1012.57 1014.56 1015.31 1015.09 1015.57 1014.85 1015.90 1016.03 1015.93 1015.53 1014.15 1010.92 1009.42 1007.94 1008.03 1007.46 1007.34 1007.68 1007.91 1008.12 1008.48 1009.18 1009.91 1010.53 1011.03 1011.38 1011.73 1012.20 1012.79 1013.10 1013.22 1013.35 1013.61 1013.81 1014.22 1014.66 1015.53 1016.11 1016.60 1017.16 1017.82 1019.04 1020.03
1007.94 1010.40 1014.82 1015.18 1014.19 1013.93 1014.73 1014.71 1014.61 1014.37 1014.22 1012.93 1010.85 1008.17 1006.92 1006.57 1007.09 1007.42 1007.97 1008.39 1008.49 1008.78 1009.32 1009.96 1010.43 1010.90 1011.39 1011.91 1012.20 1012.40 1012.82 1012.99 1012.97 1012.98 1013.09 1013.58 1014.15 1014.85 1015.59 1016.19 1016.99 1017.72 1018.66 1019.57
1007.43 1010.02 1012.76 1013.80 1014.07 1013.65 1013.28 1013.43 1013.53 1013.24 1013.95 1013.15 1011.61 1008.11 1007.41 1007.11 1007.48 1008.04 1008.35 1008.72 1009.00 1009.53 1009.81 1010.15 1010.63 1011.05 1011.23 1011.62 1012.12 1012.42 1012.64 1013.17 1013.62 1013.80 1013.61 1013.62 1014.25 1014.81 1015.38 1015.94 1016.89 1017.63 1018.45 1019.12
1006.87 1009.68 1012.05 1014.07 1014.14 1013.27 1012.66 1012.51 1012.79 1012.99 1013.37 1012.57 1011.88 1007.51 1006.30 1007.13 1008.17 1008.60 1008.62 1008.81 1009.18 1009.50 1009.78 1010.27 1010.47 1010.77 1011.11 1011.30 1011.64 1012.20 1012.50 1012.74 1013.58 1014.33 1014.58 1014.31 1014.46 1015.38 1015.57 1015.97 1016.69 1017.55 1018.33 1018.96
1006.66 1008.34 1008.75 1009.01 1009.27 1010.85 1012.02 1011.80 1012.14 1012.70 1012.90 1010.46 1010.39 1006.92 1007.34 1007.95 1008.26 1008.66 1008.89 1009.03 1009.36 1009.50 1009.64 1009.70 1010.00 1010.25 1010.70 1011.14 1011.50 1011.72 1012.27 1012.67 1013.16 1013.81 1014.75 1015.11 1015.55 1015.92 1016.18 1016.50 1016.94 1017.54 1018.09 1018.73
1006.35 1007.67 1008.71 1009.13 1009.15 1009.88 1010.32 1010.95 1011.73 1011.77 1009.72 1010.70 1008.68 1008.31 1007.99 1008.18 1008.19 1008.16 1008.40 1008.90 1009.17 1009.21 1009.32 1009.57 1009.77 1009.97 1010.25 1010.84 1011.49 1011.94 1012.45 1012.88 1013.41 1013.77 1013.98 1014.83 1015.82 1016.37 1016.75 1016.95 1017.41 1017.65 1018.02 1018.45
1006.61 1007.79 1009.11 1010.59 1010.24 1010.43 1010.43 1010.23 1010.13 1009.94 1009.76 1010.53 1008.89 1008.31 1008.23 1008.20 1008.45 1008.88 1008.82 1008.94 1008.97 1009.10 1009.22 1009.43 1009.59 1009.88 1010.36 1010.77 1011.17 1011.85 1012.24 1012.71 1013.28 1013.39 1014.10 1014.51 1015.16 1016.14 1017.18 1017.69 1017.92 1018.34 1018.72 1019.00
1006.80 1008.29 1009.47 1011.27 1011.25 1011.13 1010.51 1008.43 1009.07 1008.96 1009.29 1008.86 1008.84 1006.94 1008.20 1008.12 1008.56 1008.66 1008.72 1008.81 1009.14 1009.29 1009.42 1009.63 1009.69 1009.72 1010.07 1010.39 1010.76 1011.21 1012.09 1012.69 1013.35 1013.72 1014.15 1014.93 1015.28 1015.82 1016.92 1017.96 1018.52 1018.71 1019.12 1019.44
1006.53 1008.15 1009.35 1011.46 1011.34 1010.80 1007.39 1007.14 1007.43 1008.01 1008.35 1008.44 1008.13 1007.75 1008.25 1008.26 1008.44 1008.42 1008.93 1009.16 1009.26 1009.60 1009.89 1009.94 1009.84 1009.92 1009.83 1010.29 1010.73 1011.27 1011.98 1012.60 1013.37 1014.00 1014.54 1015.29 1015.92 1016.22 1016.70 1017.41 1018.43 1018.95 1019.36 1019.59
1007.26 1007.68 1009.64 1010.65 1009.93 1008.84 1007.88 1007.15 1007.18 1007.78 1007.42 1007.55 1007.45 1007.75 1008.08 1008.16 1008.64 1008.38 1009.17 1009.45 1009.85 1010.27 1010.80 1010.95 1010.78 1010.63 1010.41 1010.63 1010.99 1011.46 1012.59 1013.05 1013.59 1014.24 1014.86 1015.47 1016.13 1016.37 1016.65 1017.12 1018.06 1018.72 1019.21 1019.80
1007.56 1007.49 1008.32 1009.60 1009.23 1007.77 1006.07 1006.54 1006.89 1008.00 1007.39 1006.96 1007.25 1007.24 1007.48 1008.40 1008.93 1009.18 1010.11 1010.69 1011.14 1011.45 1011.69 1011.75 1011.56 1011.32 1011.36 1011.39 1011.77 1012.34 1013.08 1013.52 1013.79 1014.10 1014.44 1015.38 1015.97 1016.55 1016.74 1017.13 1017.70 1018.14 1018.88 1019.42
1007.62 1007.78 1007.98 1008.20 1007.62 1006.74 1006.23 1006.70 1007.57 1008.16 1007.41 1006.63 1006.62 1006.96 1007.72 1008.51 1009.00 1010.34 1011.11 1011.90 1012.48 1012.77 1012.78 1012.77 1012.44 1012.18 1012.22 1012.30 1012.63 1013.07 1013.34 1013.80 1014.08 1014.51 1014.80 1015.08 1015.95 1016.49 1016.89 1017.28 1018.01 1018.25 1018.91 1019.56
1005.58 1006.59 1007.06 1007.39 1007.20 1006.46 1006.13 1007.21 1006.78 1006.50 1006.97 1007.12 1007.27 1007.77 1008.18 1009.08 1010.22 1011.26 1012.16 1012.94 1013.46 1013.83 1013.98 1014.00 1013.57 1013.32 1013.26 1013.31 1013.43 1013.92 1014.18 1014.19 1014.14 1014.44 1014.99 1014.98 1015.35 1016.09 1016.66 1017.27 1017.98 1018.69 1019.14 1019.74
1005.01 1004.04 1004.83 1005.34 1004.85 1004.94 1005.16 1005.47 1006.08 1006.42 1006.95 1007.88 1008.12 1008.66 1009.14 1010.10 1011.10 1011.80 1012.83 1013.62 1014.39 1014.95 1015.29 1015.24 1014.83 1014.54 1014.41 1014.09 1013.99 1014.13 1014.30 1014.43 1014.71 1014.98 1014.99 1015.82 1015.91 1016.21 1016.77 1017.01 1017.35 1018.16 1018.79 1019.62
1004.61 1004.16 1004.30 1005.00 1004.79 1004.92 1005.45 1006.14 1006.25 1006.92 1007.66 1008.26 1008.87 1009.58 1010.21 1011.03 1011.90 1012.78 1013.82 1014.54 1015.14 1015.86 1015.98 1015.95 1015.66 1015.24 1015.07 1015.03 1015.02 1015.18 1015.04 1014.94 1014.92 1015.37 1015.67 1015.93 1016.25 1016.71 1016.98 1017.35 1017.49 1018.01 1018.49 1018.93
1003.42 1004.13 1004.13 1004.64 1005.31 1005.61 1005.69 1006.29 1006.92 1007.79 1008.58 1009.25 1010.03 1010.72 1011.41 1012.10 1012.84 1013.51 1014.53 1015.28 1015.93 1016.34 1016.44 1016.62 1016.54 1016.45 1016.51 1016.39 1016.37 1016.25 1016.05 1015.86 1015.88 1015.86 1015.90 1016.09 1016.34 1016.75 1017.13 1017.20 1017.07 1017.44 1018.00 1018.61
1003.27 1003.17 1003.41 1003.26 1003.94 1004.12 1005.25 1006.65 1007.43 1008.55 1009.55 1010.57 1011.12 1012.30 1012.88 1013.08 1013.86 1014.74 1015.61 1016.27 1016.61 1017.02 1017.35 1017.56 1017.77 1017.71 1017.84 1017.70 1017.72 1017.66 1017.31 1016.86 1016.55 1016.39 1016.41 1016.41 1016.56 1016.82 1016.93 1017.04 1017.36 1017.68 1018.04 1018.41
Wind_Speed
12 8 20 20 17 7 14 11 16 11 5 4 14 18 19 18 13 11 11 12 12 14 14 16 17 17 17 16 16 18 17 16 12 9 8 8 8 8 7 6 7 9 8 9
8 19 18 17 17 14 8 16 16 5 5 4 13 17 13 16 17 15 14 13 14 14 14 15 18 18 18 18 17 17 17 17 15 10 9 8 8 8 8 7 9 10 8 9
17 14 15 19 18 17 10 15 14 11 3 10 14 23 22 18 20 16 16 16 15 15 17 16 18 19 17 17 17 17 16 16 16 15 10 8 7 7 8 8 7 9 11 9
12 14 20 17 21 18 12 3 4 1 3 6 1 10 14 11 20 21 20 18 18 17 14 14 17 18 18 17 16 18 16 16 16 16 13 14 10 9 8 9 8 9 11 10
9 15 21 21 20 17 2 11 4 3 1 8 13 8 8 12 17 17 18 21 20 18 17 18 18 19 19 17 17 16 17 16 16 17 16 13 13 10 9 9 10 11 8 9
5 0 11 18 17 13 19 10 10 7 3 8 14 13 10 14 17 12 15 16 19 20 17 17 17 15 16 16 17 16 17 18 17 17 18 17 16 14 10 9 7 7 7 5
8 11 3 7 12 15 4 12 1 1 5 7 5 12 14 14 12 8 9 11 12 16 17 17 17 18 18 19 19 16 19 19 18 19 17 18 17 16 15 12 9 10 8 6
12 7 11 17 9 11 8 5 5 10 8 6 2 12 6 8 4 6 11 9 9 8 14 14 14 14 15 17 17 17 18 19 18 18 18 16 18 12 12 14 9 9 9 10
16 9 9 13 8 17 7 5 4 5 3 2 8 11 14 14 14 11 12 10 12 5 8 9 9 11 11 12 14 17 17 17 17 19 16 16 15 16 13 14 11 10 9 7
17 9 8 5 11 4 12 13 5 1 6 8 10 15 10 7 10 10 11 7 5 5 4 5 7 9 9 9 9 12 14 16 16 16 16 14 15 14 14 9 11 11 9 10
23 9 6 7 12 15 9 10 7 5 5 5 6 10 4 3 3 3 3 3 2 0 3 3 3 3 5 7 8 10 12 14 15 16 16 14 12 13 12 9 8 10 10 11
9 8 10 12 3 4 16 14 12 8 6 7 5 12 4 5 7 5 5 5 5 3 5 4 4 5 5 7 8 9 8 9 10 9 11 11 9 6 10 9 8 10 11 11
13 9 10 2 6 8 15 18 18 9 4 9 6 13 9 11 5 2 3 2 2 4 4 5 4 5 6 6 7 9 9 9 7 7 7 8 7 7 8 9 9 9 11 11
6 10 11 13 8 14 15 22 19 17 7 17 17 27 7 5 2 3 4 3 7 8 8 9 6 7 6 6 8 8 10 10 8 8 7 6 5 6 7 7 9 10 11 12
8 5 10 6 8 17 16 20 21 25 30 15 23 23 16 18 16 12 12 12 12 11 9 7 7 7 7 6 6 7 8 8 7 8 9 8 6 6 5 6 8 9 10 11
7 4 8 4 9 12 12 20 26 28 25 23 23 23 14 15 10 11 13 13 12 10 10 9 8 7 6 6 7 8 9 8 9 10 8 8 7 6 5 5 6 6 6 8
12 7 5 6 4 6 5 21 23 24 23 27 22 26 9 7 7 12 13 11 10 11 12 10 10 8 4 7 7 9 9 7 8 6 6 6 7 8 7 5 6 7 8 7
15 6 3 5 6 6 6 3 20 22 22 26 23 17 11 13 14 13 11 11 13 13 12 11 8 8 6 5 6 6 6 7 6 6 5 5 5 6 7 8 7 6 7 10
12 6 5 8 11 3 5 3 15 14 20 20 24 20 20 18 10 17 13 12 11 7 8 9 8 8 8 3 4 4 4 5 6 5 5 6 6 7 9 9 9 7 7 7
12 12 5 6 8 12 7 12 12 12 9 13 21 19 18 10 10 10 5 6 6 5 6 8 9 6 4 2 2 5 4 5 6 6 7 6 6 6 8 9 10 8 7 6
6 5 10 4 5 3 4 9 13 9 4 2 7 12 8 9 8 5 4 5 5 5 7 9 6 4 6 5 4 3 4 5 3 4 5 6 5 5 5 5 4 7 7 7
13 12 8 3 5 14 7 10 14 5 3 6 5 5 6 6 6 5 5 5 6 8 9 9 6 6 7 5 3 0 2 1 3 5 4 6 7 6 6 8 5 5 6 7
9 8 8 13 8 2 14 5 4 2 6 5 5 5 5 7 6 6 5 5 5 6 6 7 6 5 8 7 5 4 3 1 3 3 4 3 4 4 5 8 9 8 8 7
4 1 4 5 6 6 13 3 6 3 4 8 5 8 7 8 8 9 6 4 5 4 4 5 5 7 8 8 8 7 6 4 3 2 3 3 4 4 4 3 4 5 7 8
2 10 7 1 2 5 3 4 9 7 9 10 8 6 7 9 9 9 6 5 4 4 5 6 7 8 9 8 8 8 7 4 2 2 3 3 3 4 3 3 5 6 6 8
6 6 9 6 11 7 10 13 11 9 7 8 10 6 5 5 8 8 7 5 5 6 6 7 8 7 8 8 9 10 9 7 4 3 2 1 1 2 2 2 2 7 7 9
Wind_Direction
170 180 201 195 198 219 193 197 233 224 143 226 241 250 248 243 226 235 237 237 218 219 216 205 214 211 209 203 199 195 189 193 187 190 194 197 199 200 210 203 182 198 197 200
165 216 200 201 200 207 217 203 219 262 143 244 263 258 251 255 253 232 234 227 229 217 211 205 210 210 207 203 203 201 196 195 195 189 192 204 198 199 206 197 199 202 194 197
194 188 190 202 198 202 208 216 222 219 155 241 274 273 257 248 243 240 244 235 225 221 214 206 206 208 207 211 203 204 200 198 197 199 190 198 203 208 203 204 198 204 206 201
215 204 190 199 195 195 197 196 240 291 261 270 191 284 273 252 229 221 228 228 224 216 214 214 205 208 210 209 209 212 206 201 202 198 197 194 202 197 205 205 197 199 203 207
172 160 186 195 205 199 153 179 193 103 343 330 238 265 269 244 246 249 226 226 226 216 207 205 202 204 208 204 209 210 209 208 202 201 207 197 205 214 207 212 199 196 195 196
106 336 180 201 199 179 136 96 59 56 42 250 242 244 252 252 241 243 243 247 226 225 212 210 204 198 205 207 209 209 207 210 208 205 206 209 205 208 212 203 193 188 192 174
144 158 116 157 102 134 133 157 128 188 201 249 1 223 256 287 276 278 290 277 235 227 223 215 202 193 204 203 207 206 208 210 211 210 209 210 212 212 216 204 199 186 179 185
158 186 179 171 164 165 173 145 179 203 214 253 127 239 264 234 286 268 254 256 273 265 222 224 224 216 208 207 203 204 209 214 206 208 213 213 211 214 215 214 198 201 194 186
174 146 177 161 128 151 158 179 309 99 42 282 220 246 257 229 250 250 250 244 237 252 245 255 241 230 223 217 214 210 208 218 215 211 208 211 217 220 212 203 205 199 190 164
162 123 185 145 149 197 184 153 131 156 202 240 245 247 245 202 246 261 235 253 244 270 205 240 238 244 236 234 218 219 222 218 216 214 211 210 208 215 221 205 203 185 169 158
158 134 159 160 202 170 162 178 202 188 234 237 282 258 351 242 244 251 84 48 339 126 33 355 325 282 253 248 241 229 225 224 217 212 208 204 203 207 209 194 181 173 153 163
124 109 148 178 95 232 198 186 179 189 179 247 317 263 138 136 126 159 140 112 76 59 40 16 340 313 269 246 238 238 238 239 245 234 218 206 197 175 181 166 161 157 167 170
161 134 115 119 314 209 212 203 198 220 28 205 199 264 222 162 134 156 161 123 6 1 5 339 296 281 277 249 225 229 223 216 221 237 241 227 171 171 177 163 159 162 161 164
129 159 177 185 185 145 194 201 196 199 197 222 218 254 204 143 246 234 226 281 300 298 303 306 290 285 270 251 239 215 219 212 187 198 223 236 227 207 191 171 165 164 166 161
166 139 197 89 146 170 189 191 189 207 224 215 235 243 255 275 291 280 299 302 298 300 303 288 280 278 271 240 233 227 220 204 196 196 191 202 201 212 194 169 172 165 172 172
196 122 132 48 156 170 184 194 204 212 220 232 244 253 274 284 279 289 282 285 287 289 296 293 282 279 279 262 231 223 215 196 195 189 199 192 167 153 161 158 153 161 153 154
161 133 134 141 140 107 277 217 205 215 215 222 231 236 204 282 297 258 268 272 289 289 293 305 299 296 242 235 215 212 209 184 191 192 169 166 162 155 154 148 154 156 161 143
165 118 96 127 138 200 246 241 206 211 217 223 240 252 253 261 265 274 278 296 287 293 300 304 307 286 276 237 224 228 189 180 177 188 164 164 163 152 140 144 160 163 164 168
179 147 116 152 199 328 167 188 186 189 231 221 230 240 242 247 263 267 272 279 294 330 338 330 330 313 310 271 217 178 149 157 183 193 178 171 175 164 157 161 165 166 161 174
182 196 139 158 183 216 155 169 175 175 256 206 220 230 238 248 249 268 69 45 26 11 1 340 331 332 315 353 101 132 180 192 209 187 176 168 171 169 176 177 176 172 171 172
149 196 205 185 215 274 145 148 150 179 251 133 200 214 217 215 228 82 60 53 32 11 355 343 331 10 20 30 104 169 179 227 215 158 152 149 158 170 175 161 159 162 164 150
170 162 187 172 210 236 141 144 189 177 67 130 127 144 171 146 124 105 79 55 25 10 3 352 351 28 36 56 91 71 267 273 142 144 157 158 156 156 151 154 138 147 153 157
188 191 152 189 200 79 170 160 162 109 129 164 148 136 140 142 158 132 106 75 49 24 3 349 360 16 22 21 27 28 9 102 125 125 125 148 136 145 161 168 161 159 166 182
213 148 165 144 180 162 180 107 126 143 121 135 117 140 140 140 142 127 112 85 63 33 10 346 2 32 33 17 24 17 356 20 89 99 120 126 148 152 158 175 171 188 190 193
166 148 154 128 107 93 157 186 151 123 123 120 107 109 131 136 138 134 117 97 77 43 27 15 18 29 21 15 23 15 5 7 60 106 117 128 138 173 183 209 185 193 202 207
191 158 183 216 164 171 189 163 136 137 136 129 125 113 65 107 118 114 94 79 72 57 29 29 23 29 19 21 25 9 2 356 9 34 36 53 131 152 185 190 211 237 247 228